• în România
  • Lista ţărilor
  • Pe 7 zile
  • Temperatura apei
  • Hartă satelitară
  • Meteo pe hartă
  • Widget-uri
  • user-avatar
    Intrare

    Meteo pe oră la Kitzbuhel

    Astăzi, 16 August, Miercuri

    Timp Temperatura Precipitaţii Vânt Presiune Umiditate
    00:00 +18°C° 0,2 mm 1 m/s 681 mmHg 80%
    01:00 +16°C° 0 mm 1 m/s 681 mmHg 84%
    02:00 +15°C° 0,7 mm 1 m/s 681 mmHg 87%
    03:00 +15°C° 0,7 mm 1 m/s 681 mmHg 90%
    04:00 +15°C° 0,7 mm 1 m/s 681 mmHg 93%
    05:00 +15°C° 0,7 mm 1 m/s 681 mmHg 94%
    06:00 +16°C° 0,7 mm 1 m/s 682 mmHg 94%
    07:00 +16°C° 0 mm 1 m/s 682 mmHg 96%
    08:00 +18°C° 0,4 mm 1 m/s 682 mmHg 92%
    09:00 +19°C° 0,4 mm 1 m/s 682 mmHg 89%
    10:00 +20°C° 0,4 mm 1 m/s 682 mmHg 85%
    11:00 +21°C° 0,5 mm 1 m/s 682 mmHg 79%
    12:00 +22°C° 0,5 mm 1 m/s 683 mmHg 74%
    13:00 +24°C° 0,5 mm 1 m/s 683 mmHg 68%
    14:00 +24°C° 0,7 mm 1 m/s 682 mmHg 69%
    15:00 +23°C° 0,7 mm 1 m/s 682 mmHg 69%
    16:00 +23°C° 0,7 mm 1 m/s 682 mmHg 70%
    17:00 +22°C° 0,4 mm 1 m/s 682 mmHg 76%
    18:00 +20°C° 0,4 mm 1 m/s 681 mmHg 83%
    19:00 +19°C° 0,4 mm 1 m/s 681 mmHg 89%
    20:00 +18°C° 0,1 mm 1 m/s 681 mmHg 91%
    21:00 +16°C° 0,1 mm 1 m/s 681 mmHg 92%
    22:00 +15°C° 0,1 mm 1 m/s 681 mmHg 94%
    23:00 +15°C° 0 mm 1 m/s 681 mmHg 93%

    Mâine, 17 August, Joi

    Timp Temperatura Precipitaţii Vânt Presiune Umiditate
    00:00 +15°C° 0 mm 1 m/s 681 mmHg 91%
    01:00 +14°C° 0 mm 1 m/s 681 mmHg 90%
    02:00 +14°C° 0 mm 1 m/s 681 mmHg 90%
    03:00 +14°C° 0 mm 1 m/s 681 mmHg 89%
    04:00 +14°C° 0 mm 1 m/s 680 mmHg 88%
    05:00 +15°C° 0 mm 1 m/s 681 mmHg 85%
    06:00 +16°C° 0 mm 1 m/s 681 mmHg 82%
    07:00 +18°C° 0 mm 1 m/s 681 mmHg 80%
    08:00 +20°C° 0 mm 1 m/s 682 mmHg 70%
    09:00 +23°C° 0 mm 1 m/s 682 mmHg 59%
    10:00 +23°C° 0 mm 0 m/s 683 mmHg 49%
    11:00 +26°C° 0 mm 1 m/s 683 mmHg 47%
    12:00 +27°C° 0 mm 1 m/s 682 mmHg 45%
    13:00 +28°C° 0 mm 1 m/s 682 mmHg 43%
    14:00 +27°C° 0 mm 1 m/s 682 mmHg 46%
    15:00 +26°C° 0 mm 1 m/s 682 mmHg 50%
    16:00 +26°C° 0 mm 1 m/s 681 mmHg 54%
    17:00 +24°C° 0,1 mm 1 m/s 681 mmHg 64%
    18:00 +22°C° 0,1 mm 1 m/s 680 mmHg 74%
    19:00 +18°C° 0,1 mm 0 m/s 680 mmHg 84%
    20:00 +19°C° 0 mm 1 m/s 680 mmHg 86%
    21:00 +18°C° 0 mm 1 m/s 680 mmHg 87%
    22:00 +18°C° 0 mm 1 m/s 680 mmHg 89%
    23:00 +16°C° 0 mm 1 m/s 680 mmHg 88%

    Poimâine, 18 August, Vineri

    Timp Temperatura Precipitaţii Vânt Presiune Umiditate
    00:00 +16°C° 0 mm 1 m/s 680 mmHg 88%
    01:00 +16°C° 0 mm 1 m/s 680 mmHg 88%
    02:00 +15°C° 0 mm 1 m/s 680 mmHg 87%
    03:00 +15°C° 0 mm 1 m/s 680 mmHg 87%
    04:00 +15°C° 0 mm 1 m/s 680 mmHg 86%
    05:00 +16°C° 0 mm 1 m/s 680 mmHg 84%
    06:00 +18°C° 0 mm 1 m/s 680 mmHg 82%
    07:00 +20°C° 0 mm 1 m/s 680 mmHg 79%
    08:00 +22°C° 0 mm 1 m/s 681 mmHg 70%
    09:00 +24°C° 0 mm 1 m/s 681 mmHg 61%
    10:00 +27°C° 0 mm 1 m/s 681 mmHg 52%
    11:00 +28°C° 0 mm 1 m/s 681 mmHg 50%
    12:00 +28°C° 0 mm 2 m/s 681 mmHg 48%
    13:00 +29°C° 0 mm 2 m/s 681 mmHg 46%
    14:00 +28°C° 0,2 mm 2 m/s 680 mmHg 51%
    15:00 +28°C° 0,2 mm 2 m/s 680 mmHg 56%
    16:00 +27°C° 0,2 mm 2 m/s 679 mmHg 61%
    17:00 +25°C° 1 mm 2 m/s 679 mmHg 70%
    18:00 +23°C° 1 mm 1 m/s 678 mmHg 78%
    19:00 +21°C° 1 mm 1 m/s 678 mmHg 86%
    20:00 +20°C° 1,2 mm 1 m/s 678 mmHg 89%
    21:00 +18°C° 1,2 mm 2 m/s 678 mmHg 91%
    22:00 +17°C° 1,2 mm 2 m/s 678 mmHg 94%
    23:00 +17°C° 0,7 mm 2 m/s 678 mmHg 95%

    19 August, Sâmbătă

    Timp Temperatura Precipitaţii Vânt Presiune Umiditate
    00:00 +16°C° 0,7 mm 2 m/s 678 mmHg 96%
    01:00 +16°C° 0,7 mm 2 m/s 678 mmHg 97%
    02:00 +15°C° 2,2 mm 2 m/s 678 mmHg 97%
    03:00 +15°C° 2,2 mm 2 m/s 678 mmHg 98%
    04:00 +15°C° 2,2 mm 2 m/s 679 mmHg 98%
    05:00 +14°C° 3,6 mm 2 m/s 679 mmHg 97%
    06:00 +13°C° 3,6 mm 2 m/s 679 mmHg 97%
    07:00 +12°C° 3,6 mm 2 m/s 679 mmHg 96%
    08:00 +13°C° 1 mm 2 m/s 679 mmHg 94%
    09:00 +13°C° 1 mm 1 m/s 679 mmHg 91%
    10:00 +14°C° 1 mm 1 m/s 679 mmHg 89%
    11:00 +15°C° 0,4 mm 1 m/s 680 mmHg 83%
    12:00 +16°C° 0,4 mm 1 m/s 680 mmHg 77%
    13:00 +18°C° 0,4 mm 2 m/s 680 mmHg 72%
    14:00 +17°C° 0,8 mm 2 m/s 680 mmHg 77%
    15:00 +16°C° 0,8 mm 2 m/s 680 mmHg 82%
    16:00 +16°C° 0,8 mm 2 m/s 680 mmHg 87%
    17:00 +15°C° 1,7 mm 2 m/s 680 mmHg 90%
    18:00 +14°C° 1,7 mm 2 m/s 680 mmHg 93%
    19:00 +13°C° 1,7 mm 2 m/s 680 mmHg 97%
    20:00 +12°C° 0,8 mm 2 m/s 680 mmHg 96%
    21:00 +12°C° 0,8 mm 2 m/s 680 mmHg 96%
    22:00 +12°C° 0,8 mm 2 m/s 681 mmHg 96%
    23:00 +10°C° 0,5 mm 2 m/s 681 mmHg 96%

    20 August, Duminică

    Timp Temperatura Precipitaţii Vânt Presiune Umiditate
    00:00 +10°C° 0,5 mm 2 m/s 681 mmHg 96%
    01:00 +10°C° 0,5 mm 2 m/s 681 mmHg 96%
    02:00 +10°C° 0,3 mm 2 m/s 681 mmHg 96%
    03:00 +10°C° 0,3 mm 1 m/s 681 mmHg 96%
    04:00 +10°C° 0,3 mm 1 m/s 681 mmHg 97%
    05:00 +10°C° 0 mm 1 m/s 681 mmHg 96%
    06:00 +11°C° 0 mm 1 m/s 682 mmHg 95%
    07:00 +11°C° 0 mm 1 m/s 682 mmHg 94%
    08:00 +12°C° 0,1 mm 2 m/s 682 mmHg 86%
    09:00 +14°C° 0,1 mm 2 m/s 683 mmHg 77%
    10:00 +15°C° 0,1 mm 2 m/s 683 mmHg 68%
    11:00 +16°C° 0,1 mm 2 m/s 683 mmHg 64%
    12:00 +17°C° 0,1 mm 2 m/s 683 mmHg 60%
    13:00 +17°C° 0,1 mm 2 m/s 683 mmHg 56%
    14:00 +17°C° 0,1 mm 2 m/s 683 mmHg 57%
    15:00 +17°C° 0,1 mm 2 m/s 683 mmHg 58%
    16:00 +17°C° 0,1 mm 2 m/s 683 mmHg 59%
    17:00 +15°C° 0 mm 2 m/s 682 mmHg 68%
    18:00 +14°C° 0 mm 1 m/s 682 mmHg 77%
    19:00 +12°C° 0 mm 1 m/s 682 mmHg 86%
    20:00 +11°C° 0 mm 1 m/s 682 mmHg 89%
    21:00 +10°C° 0 mm 1 m/s 682 mmHg 91%
    22:00 +10°C° 0 mm 1 m/s 682 mmHg 93%
    23:00 +9°C° 0 mm 1 m/s 682 mmHg 92%

    21 August, Luni

    Timp Temperatura Precipitaţii Vânt Presiune Umiditate
    00:00 +9°C° 0 mm 1 m/s 682 mmHg 91%
    01:00 +8°C° 0 mm 1 m/s 682 mmHg 89%
    02:00 +8°C° 0 mm 1 m/s 682 mmHg 87%
    03:00 +8°C° 0 mm 1 m/s 682 mmHg 84%
    04:00 +8°C° 0 mm 1 m/s 682 mmHg 82%
    05:00 +9°C° 0 mm 1 m/s 682 mmHg 78%
    06:00 +10°C° 0 mm 1 m/s 682 mmHg 74%
    07:00 +12°C° 0 mm 1 m/s 682 mmHg 70%
    08:00 +14°C° 0 mm 1 m/s 683 mmHg 59%
    09:00 +18°C° 0 mm 1 m/s 683 mmHg 49%
    10:00 +21°C° 0 mm 1 m/s 683 mmHg 38%
    11:00 +22°C° 0 mm 1 m/s 683 mmHg 36%
    12:00 +23°C° 0 mm 1 m/s 683 mmHg 34%
    13:00 +23°C° 0 mm 2 m/s 683 mmHg 31%
    14:00 +23°C° 0 mm 2 m/s 682 mmHg 33%
    15:00 +23°C° 0 mm 2 m/s 682 mmHg 36%
    16:00 +23°C° 0 mm 2 m/s 682 mmHg 38%
    17:00 +20°C° 0 mm 1 m/s 681 mmHg 48%
    18:00 +18°C° 0 mm 1 m/s 681 mmHg 59%
    19:00 +14°C° 0 mm 1 m/s 680 mmHg 70%
    20:00 +14°C° 0 mm 1 m/s 680 mmHg 69%
    21:00 +13°C° 0 mm 1 m/s 680 mmHg 69%
    22:00 +12°C° 0 mm 1 m/s 680 mmHg 68%
    23:00 +12°C° 0 mm 1 m/s 680 mmHg 66%
    Arată mai mult